Binghamton, NY

5:42 AM EST on November 21, 2019 (GMT -0500)
Binghamton Regional-Link

Weather History for KBGM - September, 2019

Change the Weather History Date:

Saturday, September 28, 2019

  Actual Average Record
Temperature  
Mean Temperature 69 °F 55 °F  
Max Temperature 80 °F 64 °F 80 °F (2019)
Min Temperature 58 °F 46 °F 30 °F (1989)
Degree Days  
Heating Degree Days 0 11  
Month to date heating degree days 120 172  
Since 1 July heating degree days 157 235  
Cooling Degree Days 4 0  
Month to date cooling degree days 22 29  
Year to date cooling degree days 384 377  
Growing Degree Days 18 (Base 50)    
Moisture  
Dew Point 57 °F    
Average Humidity 74    
Maximum Humidity 93    
Minimum Humidity 54    
Precipitation  
Precipitation T in 0.13 in 1.63 in (2006)
Month to date precipitation 1.72 3.38  
Year to date precipitation 30.51 29.59  
Snow  
Snow 0.00 in 0.00 in T in (2007)
Month to date snowfall 0.0 0.0  
Since 1 July snowfall 0.0 0.0  
Since 1 September snowfall 0.0 0.0  
Snow Depth 0.00 in    
Sea Level Pressure  
Sea Level Pressure 30.06 in    
Wind  
Wind Speed 9 mph (WSW)    
Max Wind Speed 17 mph    
Max Gust Speed 28 mph    
Visibility 10 miles    
Events Rain    
T = Trace of Precipitation, MM = Missing Value Source: NWS Daily Summary

Daily Weather History Graph

Daily Weather History Graph

Search for Another Location

Airport or City:

Astronomy

Sep. 28, 2019 Rise Set
Actual Time 6:57 AM EDT 6:51 PM EDT
Civil Twilight 6:29 AM EDT 7:18 PM EDT
Nautical Twilight 5:56 AM EDT 7:51 PM EDT
Astronomical Twilight 5:23 AM EDT 8:24 PM EDT
Moon 6:29 AM EDT (9/28) 7:16 PM EDT (9/28)
Length of Visible Light 12h 49m
Length of Day
11h 53m
Waning Crescent, 0% of the Moon is Illuminated
Sep 28
Waning Crescent
Sep 28
New
Oct 5
First Quarter
Oct 13
Full
Oct 21
Last Quarter

Hourly Weather History & Observations

Time (EDT) Temp. Dew Point Humidity Pressure Visibility Wind Dir Wind Speed Gust Speed Precip Events Conditions
12:53 AM 60.1 °F 48.9 °F 67% 30.02 in 10.0 mi South 6.9 mph - N/A   Clear
1:53 AM 60.1 °F 48.9 °F 67% 30.02 in 10.0 mi South 9.2 mph - N/A   Partly Cloudy
2:53 AM 59.0 °F 48.9 °F 69% 30.02 in 10.0 mi South 6.9 mph - N/A   Clear
3:53 AM 59.0 °F 50.0 °F 72% 30.03 in 10.0 mi South 6.9 mph - N/A   Clear
4:53 AM 59.0 °F 51.1 °F 75% 30.03 in 10.0 mi South 6.9 mph - N/A   Clear
5:53 AM 59.0 °F 53.1 °F 81% 30.04 in 10.0 mi South 8.1 mph - N/A   Clear
6:53 AM 59.0 °F 53.1 °F 81% 30.04 in 10.0 mi South 8.1 mph - N/A   Clear
7:53 AM 60.1 °F 54.0 °F 80% 30.05 in 10.0 mi South 10.4 mph - N/A   Clear
8:53 AM 64.0 °F 55.0 °F 73% 30.03 in 10.0 mi South 10.4 mph - N/A   Clear
9:53 AM 68.0 °F 57.0 °F 68% 30.04 in 10.0 mi SSW 9.2 mph - N/A   Clear
10:53 AM 71.1 °F 57.9 °F 63% 30.02 in 10.0 mi SSW 9.2 mph 20.7 mph N/A   Clear
11:53 AM 75.9 °F 60.1 °F 58% 30.01 in 10.0 mi SW 13.8 mph 19.6 mph N/A   Clear
12:53 PM 78.1 °F 60.1 °F 54% 30.03 in 10.0 mi WSW 15.0 mph 21.9 mph N/A   Clear
1:53 PM 78.1 °F 61.0 °F 56% 30.02 in 10.0 mi WSW 11.5 mph - N/A   Clear
2:53 PM 79.0 °F 61.0 °F 54% 30.02 in 10.0 mi West 9.2 mph - N/A   Overcast
3:53 PM 77.0 °F 61.0 °F 58% 30.03 in 10.0 mi West 8.1 mph - N/A   Overcast
4:53 PM 78.1 °F 60.1 °F 54% 30.03 in 10.0 mi NNW 6.9 mph - N/A   Clear
5:53 PM 75.9 °F 60.1 °F 58% 30.05 in 10.0 mi Calm Calm - N/A   Partly Cloudy
6:53 PM 73.9 °F 61.0 °F 64% 30.07 in 10.0 mi North 5.8 mph - 0.00 in Rain Light Rain
7:53 PM 71.1 °F 61.0 °F 70% 30.09 in 10.0 mi North 11.5 mph - 0.00 in Rain Light Rain
8:53 PM 69.1 °F 60.1 °F 73% 30.11 in 10.0 mi NNW 10.4 mph - 0.00 in   Overcast
9:53 PM 66.0 °F 61.0 °F 84% 30.14 in 10.0 mi NNW 10.4 mph - N/A   Overcast
10:53 PM 64.9 °F 61.0 °F 87% 30.15 in 10.0 mi NNW 5.8 mph - N/A   Partly Cloudy
11:40 PM 64.9 °F 62.1 °F 90% 30.18 in 10.0 mi NNW 8.1 mph - N/A   Mostly Cloudy
11:53 PM 64.0 °F 62.1 °F 93% 30.16 in 9.0 mi NNW 10.4 mph 19.6 mph N/A   Overcast